Simultaneous Nadir Overpasses (SNOs) Predictions

Prediction of SNOs between NOAA-20 and AQUA Satellite Orbit:

Table of predicted SNOs for the next 14.0 days since TLE Epoch: 10/2/2021
Index Date (NOAA-20) Time (NOAA-20) Lat,Lon (NOAA-20) SZA (NOAA-20 ) Date (AQUA) Time (AQUA) Lat,Lon (AQUA) SZA (AQUA ) Distance(km) Time Diff (sec)
1 10/03/2021 22:13:09 -76.55, -92.50 79.80 10/03/2021 22:13:15 -76.55, -92.50 79.81 0.21 6
2 10/03/2021 23:03:32 77.47, 78.61 99.08 10/03/2021 23:02:21 77.46, 78.52 99.16 2.12 71
3 10/06/2021 13:39:34 75.74,-146.86 102.10 10/06/2021 13:40:32 75.74,-146.83 102.04 1.09 58
4 10/06/2021 14:29:59 -76.69, 23.82 79.01 10/06/2021 14:29:40 -76.70, 23.88 79.01 1.62 19
5 10/09/2021 05:56:22 76.02, -30.15 102.73 10/09/2021 05:56:55 76.03, -30.08 102.68 2.14 33
6 10/09/2021 06:46:47 -76.96, 140.67 78.38 10/09/2021 06:46:03 -76.97, 140.75 78.36 2.18 44
7 10/11/2021 22:13:08 76.39, 86.92 103.25 10/11/2021 22:13:16 76.40, 86.99 103.23 2.02 8
8 10/11/2021 23:03:34 -77.27,-102.26 77.81 10/11/2021 23:02:25 -77.28,-102.21 77.76 1.57 69
9 10/14/2021 13:39:32 -75.76, 33.21 75.10 10/14/2021 13:40:32 -75.77, 33.25 75.16 1.10 60



Historial Predications of SNOs between NOAA-20 and AQUA
